Weather History for Sheridan, WY

Change the Weather History Date:

Friday, October 19, 2012

  Actual Average Record
Temperature  
Mean Temperature 49 °F 44 °F  
Max Temperature 72 °F 59 °F 89 °F (2003)
Min Temperature 26 °F 30 °F 7 °F (1925)
Degree Days  
Heating Degree Days 16 21  
Month to date heating degree days 340 330  
Since 1 July heating degree days 490 633  
Cooling Degree Days 0 0  
Month to date cooling degree days 0 0  
Year to date cooling degree days 664 418  
Moisture  
Dew Point 28 °F    
Average Humidity 51    
Maximum Humidity 85    
Minimum Humidity 17    
Precipitation  
Precipitation 0.00 in 0.04 in 1.09 in (1924)
Month to date precipitation 0.72 0.99  
Year to date precipitation 7.71 12.47  
Sea Level Pressure  
Sea Level Pressure 29.84 in    
Wind  
Wind Speed 2 mph (WNW)    
Max Wind Speed 14 mph    
Max Gust Speed 20 mph    
Visibility 11 miles    
Events      
T = Trace of Precipitation, MM = Missing Value Source: NWS Daily Summary

Daily Weather History Graph

Daily Weather History Graph

Search for Another Location

Airport:

Trip Planner

Search our weather history database for the weather conditions in past years. The results will help you decide how hot, cold, wet, or windy it might be!

Date:

Astronomy

Oct. 19, 2012 Rise Set
Actual Time 7:29 AM MDT 6:15 PM MDT
Civil Twilight 6:59 AM MDT 6:45 PM MDT
Nautical Twilight 6:25 AM MDT 7:19 PM MDT
Astronomical Twilight 5:51 AM MDT 7:52 PM MDT
Moon 12:23 PM MDT (10/19) 9:48 PM MDT (10/19)
Length of Visible Light 11h 45m
Length of Day
10h 46m
Waxing Crescent, 24% of the Moon is Illuminated
Oct 19
Waxing Crescent
Oct 21
First Quarter
Oct 29
Full
Nov 6
Last Quarter
Nov 13
New

Hourly Weather History & Observations

Time (MDT) Temp. Windchill Dew Point Humidity Pressure Visibility Wind Dir Wind Speed Gust Speed Precip Events Conditions
12:53 AM 30.0 °F - 21.9 °F 72% 30.08 in - Calm Calm - N/A   Clear
1:53 AM 28.0 °F - 21.9 °F 78% 30.06 in - Calm Calm - N/A   Clear
2:53 AM 27.0 °F - 21.9 °F 81% 30.04 in - Calm Calm - N/A   Clear
3:53 AM 27.0 °F - 23.0 °F 85% 30.01 in - Calm Calm - N/A   Clear
4:53 AM 28.9 °F 25.2 °F 23.0 °F 78% 29.99 in - SW 3.5 mph - N/A   Clear
5:07 AM 19.4 °F - 19.4 °F 100% 29.94 in 15.0 mi Calm Calm - N/A   Clear
5:53 AM 28.9 °F - 24.1 °F 82% 29.98 in - Calm Calm - N/A   Clear
6:02 AM 35.6 °F - 24.8 °F 65% 29.93 in 15.0 mi Calm Calm - N/A   Clear
6:53 AM 28.9 °F - 24.1 °F 82% 29.97 in - Calm Calm - N/A   Clear
7:02 AM 33.8 °F - 23.0 °F 65% 29.90 in 20.0 mi West 2.3 mph - N/A   Scattered Clouds
7:53 AM 28.9 °F - 25.0 °F 85% 29.97 in - Calm Calm - N/A   Clear
8:15 AM 33.8 °F - 23.0 °F 65% 29.87 in 25.0 mi Variable 2.3 mph - N/A   Mostly Cloudy
8:53 AM 33.1 °F - 28.9 °F 85% 29.93 in - Calm Calm - N/A   Clear
9:15 AM 44.6 °F 43.1 °F 24.8 °F 46% 29.85 in 25.0 mi NW 3.5 mph - N/A   Mostly Cloudy
9:53 AM 41.0 °F 39.0 °F 30.0 °F 65% 29.91 in - North 3.5 mph - N/A   Clear
10:07 AM 48.2 °F - 30.2 °F 50% 29.85 in 25.0 mi NNW 4.6 mph - N/A   Scattered Clouds
10:53 AM 50.0 °F - 30.0 °F 46% 29.88 in - North 4.6 mph - N/A   Clear
11:02 AM 53.6 °F - 28.4 °F 38% 29.84 in 25.0 mi NNW 3.5 mph - N/A   Scattered Clouds
11:53 AM 57.0 °F - 32.0 °F 39% 29.84 in 10.0 mi North 3.5 mph - N/A   Clear
12:11 PM 59.0 °F - 33.8 °F 39% 29.80 in 25.0 mi Calm Calm - N/A   Scattered Clouds
12:53 PM 66.0 °F - 35.1 °F 32% 29.78 in - South 4.6 mph - N/A   Clear
1:02 PM 68.0 °F - 33.8 °F 28% 29.78 in 25.0 mi SE 3.5 mph - N/A   Scattered Clouds
1:53 PM 70.0 °F - 25.0 °F 18% 29.74 in 10.0 mi Calm Calm - N/A   Clear
2:53 PM 71.1 °F - 25.0 °F 18% 29.74 in 10.0 mi Calm Calm - N/A   Scattered Clouds
3:53 PM 70.0 °F - 23.0 °F 17% 29.73 in 10.0 mi Calm Calm - N/A   Clear
4:53 PM 64.9 °F - 32.0 °F 29% 29.75 in 10.0 mi WSW 4.6 mph - N/A   Clear
5:53 PM 60.1 °F - 35.1 °F 39% 29.73 in 10.0 mi SSW 5.8 mph - N/A   Partly Cloudy
6:53 PM 57.0 °F - 33.1 °F 40% 29.73 in 10.0 mi South 3.5 mph - N/A   Clear
7:53 PM 59.0 °F - 30.9 °F 35% 29.72 in 10.0 mi ESE 3.5 mph - N/A   Clear
8:53 PM 55.9 °F - 33.1 °F 42% 29.70 in 10.0 mi Variable 3.5 mph - N/A   Clear
9:53 PM 59.0 °F - 30.0 °F 33% 29.67 in 10.0 mi Calm Calm - N/A   Clear
10:53 PM 61.0 °F - 28.9 °F 30% 29.63 in 10.0 mi Calm Calm - N/A   Mostly Cloudy
11:53 PM 55.0 °F - 30.9 °F 40% 29.62 in 10.0 mi NNW 12.7 mph 19.6 mph N/A   Clear